星链-36646(STARLINK-36646)

导读 | 豆包AI

STARLINK-36646是由美国发射的SpaceX星链卫星,发射于2026年2月16日。星链是SpaceX打造的低轨卫星互联网星座,计划部署数万颗卫星,为全球提供高速互联网服务,这颗卫星将加入星座组网,拓展覆盖范围与服务能力,支撑星座的通信服务运营。

基本信息
目录编号:
67823
目录名称:
STARLINK-36646
国际标识:
2026-033C
轨道中心:
EARTH
卫星名称:
星链-36646
卫星全名:
星链-36646(STARLINK-36646)
卫星状态:
在轨 (已飞行71 天)
发射日期:
2026-02-16 UTC
国别 :
美国 (US)
星等 :
--
轨道信息
数据来源 国际轨道数据
星历时间: 2026-04-28T07:44:29+0800
23小时前
查看轨道信息
半长轴: 6861.184km
偏心率: 0.0001608
轨道倾角: 43.001°
近地点辐角 274.220°
升交点赤经 348.641°
平近点角 85.847°
近地点: 481.943km
远地点: 484.151km
周期: 94.267分钟
每日圈数: 15.27581
详细信息
固有亮度:
5
最大亮度:
2.5
卫星平台:
Starlink V1.0
覆盖范围:
全球
运营商:
太空探索技术公司
运营商所在国:
美国
制造商(研发单位):
太空探索技术公司
制造商所在国:
美国
使用方式:
暂无
卫星简介
Starlink 计划是 SpaceX 推出的全球卫星互联网项目,通过发射低轨道卫星,为全球尤其是偏远地区提供高速、低延迟的互联网服务。自 2019 年起,Starlink 已部署数千颗卫星,旨在缩小全球数字鸿沟,推动互联网普及。该项目还为军事、航空等行业提供通信支持,带来广泛经济效益。
2D轨道图
3D轨道图
轨道高度分析图
轨道倾角分析图
轨道综合分析图
查看轨道综合分析图